Export;EXP-2023-01 (20230708 09:46);;;StationsCode;NL49551;NL49553
Periode;20080101 00:00 - 20090101 00:00;;;BeheerderMeetStation;GGD A'dam;GGD A'dam
Bron;https://data.rivm.nl/data/luchtmeetnet;;;StationsNaam;IJmuiden-Kanaaldijk;Wijk aan Zee-Burgemeester Rothestraat
Beschrijving data;https://data.rivm.nl/data/luchtmeetnet/readme.pdf;;;Latitude,Longitude;(52.463039,4.601842);(52.493992,4.601986)
Accreditatienummer;https://www.rva.nl/alle-geaccrediteerden/;;;StationsGebied;stad;stad
;;;;StationsType;industrie;industrie
;;;;Meetprincipe;Ultraviolet fluorescentie (UV-F);Ultraviolet fluorescentie (UV-F)
;;;;Meetopstelling;H2S metingen met een Thermo monitor;H2S metingen met een Thermo monitor
;;;;Accreditatienummer;nvt;nvt
Component;Bep.periode;Eenheid; Begindatumtijd;Einddatumtijd;NL49551;NL49553
H2S;uur;�g/m�;20080101 00:00;20080101 01:00;10;3
H2S;uur;�g/m�;20080101 01:00;20080101 02:00;4;2
H2S;uur;�g/m�;20080101 02:00;20080101 03:00;3;3
H2S;uur;�g/m�;20080101 03:00;20080101 04:00;2;3
H2S;uur;�g/m�;20080101 04:00;20080101 05:00;2;3
H2S;uur;�g/m�;20080101 05:00;20080101 06:00;1;2
H2S;uur;�g/m�;20080101 06:00;20080101 07:00;1;2
H2S;uur;�g/m�;20080101 07:00;20080101 08:00;1;2
H2S;uur;�g/m�;20080101 08:00;20080101 09:00;2;2
H2S;uur;�g/m�;20080101 09:00;20080101 10:00;1;2
H2S;uur;�g/m�;20080101 10:00;20080101 11:00;1;1
H2S;uur;�g/m�;20080101 11:00;20080101 12:00;1;1
H2S;uur;�g/m�;20080101 12:00;20080101 13:00;1;1
H2S;uur;�g/m�;20080101 13:00;20080101 14:00;1;1
H2S;uur;�g/m�;20080101 14:00;20080101 15:00;1;1
H2S;uur;�g/m�;20080101 15:00;20080101 16:00;1;1
H2S;uur;�g/m�;20080101 16:00;20080101 17:00;1;1
H2S;uur;�g/m�;20080101 17:00;20080101 18:00;1;1
H2S;uur;�g/m�;20080101 18:00;20080101 19:00;0;1
H2S;uur;�g/m�;20080101 19:00;20080101 20:00;1;0
H2S;uur;�g/m�;20080101 20:00;20080101 21:00;0;1
H2S;uur;�g/m�;20080101 21:00;20080101 22:00;1;1
H2S;uur;�g/m�;20080101 22:00;20080101 23:00;0;1
H2S;uur;�g/m�;20080101 23:00;20080102 00:00;1;1
H2S;uur;�g/m�;20080102 00:00;20080102 01:00;0;1
H2S;uur;�g/m�;20080102 01:00;20080102 02:00;1;1
H2S;uur;�g/m�;20080102 02:00;20080102 03:00;0;1
H2S;uur;�g/m�;20080102 03:00;20080102 04:00;1;1
H2S;uur;�g/m�;20080102 04:00;20080102 05:00;1;1
H2S;uur;�g/m�;20080102 05:00;20080102 06:00;1;1
H2S;uur;�g/m�;20080102 06:00;20080102 07:00;1;1
H2S;uur;�g/m�;20080102 07:00;20080102 08:00;1;1
H2S;uur;�g/m�;20080102 08:00;20080102 09:00;1;1
H2S;uur;�g/m�;20080102 09:00;20080102 10:00;;
H2S;uur;�g/m�;20080102 10:00;20080102 11:00;1;0
H2S;uur;�g/m�;20080102 11:00;20080102 12:00;0;0
H2S;uur;�g/m�;20080102 12:00;20080102 13:00;1;0
H2S;uur;�g/m�;20080102 13:00;20080102 14:00;0;0
H2S;uur;�g/m�;20080102 14:00;20080102 15:00;0;0
H2S;uur;�g/m�;20080102 15:00;20080102 16:00;1;
H2S;uur;�g/m�;20080102 16:00;20080102 17:00;1;0
H2S;uur;�g/m�;20080102 17:00;20080102 18:00;1;0
H2S;uur;�g/m�;20080102 18:00;20080102 19:00;1;0
H2S;uur;�g/m�;20080102 19:00;20080102 20:00;0;
H2S;uur;�g/m�;20080102 20:00;20080102 21:00;1;0
H2S;uur;�g/m�;20080102 21:00;20080102 22:00;0;0
H2S;uur;�g/m�;20080102 22:00;20080102 23:00;0;0
H2S;uur;�g/m�;20080102 23:00;20080103 00:00;0;0
H2S;uur;�g/m�;20080103 00:00;20080103 01:00;0;0
H2S;uur;�g/m�;20080103 01:00;20080103 02:00;0;0
H2S;uur;�g/m�;20080103 02:00;20080103 03:00;0;0
H2S;uur;�g/m�;20080103 03:00;20080103 04:00;1;0
H2S;uur;�g/m�;20080103 04:00;20080103 05:00;1;0
H2S;uur;�g/m�;20080103 05:00;20080103 06:00;1;0
H2S;uur;�g/m�;20080103 06:00;20080103 07:00;1;0
H2S;uur;�g/m�;20080103 07:00;20080103 08:00;1;0
H2S;uur;�g/m�;20080103 08:00;20080103 09:00;1;0
H2S;uur;�g/m�;20080103 09:00;20080103 10:00;1;0
H2S;uur;�g/m�;20080103 10:00;20080103 11:00;0;0
H2S;uur;�g/m�;20080103 11:00;20080103 12:00;1;0
H2S;uur;�g/m�;20080103 12:00;20080103 13:00;0;0
H2S;uur;�g/m�;20080103 13:00;20080103 14:00;1;0
H2S;uur;�g/m�;20080103 14:00;20080103 15:00;0;0
H2S;uur;�g/m�;20080103 15:00;20080103 16:00;0;0
H2S;uur;�g/m�;20080103 16:00;20080103 17:00;1;0
H2S;uur;�g/m�;20080103 17:00;20080103 18:00;1;0
H2S;uur;�g/m�;20080103 18:00;20080103 19:00;0;0
H2S;uur;�g/m�;20080103 19:00;20080103 20:00;1;0
H2S;uur;�g/m�;20080103 20:00;20080103 21:00;0;0
H2S;uur;�g/m�;20080103 21:00;20080103 22:00;0;1
H2S;uur;�g/m�;20080103 22:00;20080103 23:00;0;0
H2S;uur;�g/m�;20080103 23:00;20080104 00:00;0;0
H2S;uur;�g/m�;20080104 00:00;20080104 01:00;1;0
H2S;uur;�g/m�;20080104 01:00;20080104 02:00;1;0
H2S;uur;�g/m�;20080104 02:00;20080104 03:00;0;0
H2S;uur;�g/m�;20080104 03:00;20080104 04:00;0;0
H2S;uur;�g/m�;20080104 04:00;20080104 05:00;0;0
H2S;uur;�g/m�;20080104 05:00;20080104 06:00;0;0
H2S;uur;�g/m�;20080104 06:00;20080104 07:00;1;0
H2S;uur;�g/m�;20080104 07:00;20080104 08:00;0;1
H2S;uur;�g/m�;20080104 08:00;20080104 09:00;0;0
H2S;uur;�g/m�;20080104 09:00;20080104 10:00;0;1
H2S;uur;�g/m�;20080104 10:00;20080104 11:00;;
H2S;uur;�g/m�;20080104 11:00;20080104 12:00;1;2
H2S;uur;�g/m�;20080104 12:00;20080104 13:00;0;2
H2S;uur;�g/m�;20080104 13:00;20080104 14:00;0;2
H2S;uur;�g/m�;20080104 14:00;20080104 15:00;0;2
H2S;uur;�g/m�;20080104 15:00;20080104 16:00;0;2
H2S;uur;�g/m�;20080104 16:00;20080104 17:00;0;2
H2S;uur;�g/m�;20080104 17:00;20080104 18:00;0;1
H2S;uur;�g/m�;20080104 18:00;20080104 19:00;0;2
H2S;uur;�g/m�;20080104 19:00;20080104 20:00;1;1
H2S;uur;�g/m�;20080104 20:00;20080104 21:00;0;2
H2S;uur;�g/m�;20080104 21:00;20080104 22:00;0;2
H2S;uur;�g/m�;20080104 22:00;20080104 23:00;0;2
H2S;uur;�g/m�;20080104 23:00;20080105 00:00;0;3
H2S;uur;�g/m�;20080105 00:00;20080105 01:00;0;2
H2S;uur;�g/m�;20080105 01:00;20080105 02:00;0;2
H2S;uur;�g/m�;20080105 02:00;20080105 03:00;0;3
H2S;uur;�g/m�;20080105 03:00;20080105 04:00;0;2
H2S;uur;�g/m�;20080105 04:00;20080105 05:00;0;2
H2S;uur;�g/m�;20080105 05:00;20080105 06:00;0;8
H2S;uur;�g/m�;20080105 06:00;20080105 07:00;0;11
H2S;uur;�g/m�;20080105 07:00;20080105 08:00;0;10
H2S;uur;�g/m�;20080105 08:00;20080105 09:00;0;6
H2S;uur;�g/m�;20080105 09:00;20080105 10:00;0;13
H2S;uur;�g/m�;20080105 10:00;20080105 11:00;0;11
H2S;uur;�g/m�;20080105 11:00;20080105 12:00;0;14
H2S;uur;�g/m�;20080105 12:00;20080105 13:00;0;10
H2S;uur;�g/m�;20080105 13:00;20080105 14:00;0;6
H2S;uur;�g/m�;20080105 14:00;20080105 15:00;0;4
H2S;uur;�g/m�;20080105 15:00;20080105 16:00;0;3
H2S;uur;�g/m�;20080105 16:00;20080105 17:00;0;1
H2S;uur;�g/m�;20080105 17:00;20080105 18:00;0;3
H2S;uur;�g/m�;20080105 18:00;20080105 19:00;0;3
H2S;uur;�g/m�;20080105 19:00;20080105 20:00;0;3
H2S;uur;�g/m�;20080105 20:00;20080105 21:00;0;1
H2S;uur;�g/m�;20080105 21:00;20080105 22:00;0;1
H2S;uur;�g/m�;20080105 22:00;20080105 23:00;0;2
H2S;uur;�g/m�;20080105 23:00;20080106 00:00;0;3
H2S;uur;�g/m�;20080106 00:00;20080106 01:00;0;7
H2S;uur;�g/m�;20080106 01:00;20080106 02:00;0;1
H2S;uur;�g/m�;20080106 02:00;20080106 03:00;0;2
H2S;uur;�g/m�;20080106 03:00;20080106 04:00;0;12
H2S;uur;�g/m�;20080106 04:00;20080106 05:00;0;6
H2S;uur;�g/m�;20080106 05:00;20080106 06:00;0;1
H2S;uur;�g/m�;20080106 06:00;20080106 07:00;0;1
H2S;uur;�g/m�;20080106 07:00;20080106 08:00;0;1
H2S;uur;�g/m�;20080106 08:00;20080106 09:00;0;1
H2S;uur;�g/m�;20080106 09:00;20080106 10:00;2;0
H2S;uur;�g/m�;20080106 10:00;20080106 11:00;1;1
H2S;uur;�g/m�;20080106 11:00;20080106 12:00;;
H2S;uur;�g/m�;20080106 12:00;20080106 13:00;2;1
H2S;uur;�g/m�;20080106 13:00;20080106 14:00;0;0
H2S;uur;�g/m�;20080106 14:00;20080106 15:00;0;0
H2S;uur;�g/m�;20080106 15:00;20080106 16:00;0;1
H2S;uur;�g/m�;20080106 16:00;20080106 17:00;0;1
H2S;uur;�g/m�;20080106 17:00;20080106 18:00;0;5
H2S;uur;�g/m�;20080106 18:00;20080106 19:00;0;2
H2S;uur;�g/m�;20080106 19:00;20080106 20:00;0;11
H2S;uur;�g/m�;20080106 20:00;20080106 21:00;0;15
H2S;uur;�g/m�;20080106 21:00;20080106 22:00;1;12
H2S;uur;�g/m�;20080106 22:00;20080106 23:00;1;2
H2S;uur;�g/m�;20080106 23:00;20080107 00:00;1;3
H2S;uur;�g/m�;20080107 00:00;20080107 01:00;1;3
H2S;uur;�g/m�;20080107 01:00;20080107 02:00;0;3
H2S;uur;�g/m�;20080107 02:00;20080107 03:00;0;2
H2S;uur;�g/m�;20080107 03:00;20080107 04:00;0;2
H2S;uur;�g/m�;20080107 04:00;20080107 05:00;0;7
H2S;uur;�g/m�;20080107 05:00;20080107 06:00;0;3
H2S;uur;�g/m�;20080107 06:00;20080107 07:00;0;1
H2S;uur;�g/m�;20080107 07:00;20080107 08:00;0;1
H2S;uur;�g/m�;20080107 08:00;20080107 09:00;0;1
H2S;uur;�g/m�;20080107 09:00;20080107 10:00;0;0
H2S;uur;�g/m�;20080107 10:00;20080107 11:00;0;1
H2S;uur;�g/m�;20080107 11:00;20080107 12:00;0;1
H2S;uur;�g/m�;20080107 12:00;20080107 13:00;0;0
H2S;uur;�g/m�;20080107 13:00;20080107 14:00;0;0
H2S;uur;�g/m�;20080107 14:00;20080107 15:00;0;1
H2S;uur;�g/m�;20080107 15:00;20080107 16:00;0;0
H2S;uur;�g/m�;20080107 16:00;20080107 17:00;0;0
H2S;uur;�g/m�;20080107 17:00;20080107 18:00;0;1
H2S;uur;�g/m�;20080107 18:00;20080107 19:00;0;0
H2S;uur;�g/m�;20080107 19:00;20080107 20:00;0;0
H2S;uur;�g/m�;20080107 20:00;20080107 21:00;0;0
H2S;uur;�g/m�;20080107 21:00;20080107 22:00;0;1
H2S;uur;�g/m�;20080107 22:00;20080107 23:00;0;1
H2S;uur;�g/m�;20080107 23:00;20080108 00:00;0;0
H2S;uur;�g/m�;20080108 00:00;20080108 01:00;0;1
H2S;uur;�g/m�;20080108 01:00;20080108 02:00;0;0
H2S;uur;�g/m�;20080108 02:00;20080108 03:00;0;0
H2S;uur;�g/m�;20080108 03:00;20080108 04:00;0;0
H2S;uur;�g/m�;20080108 04:00;20080108 05:00;0;6
H2S;uur;�g/m�;20080108 05:00;20080108 06:00;0;8
H2S;uur;�g/m�;20080108 06:00;20080108 07:00;0;6
H2S;uur;�g/m�;20080108 07:00;20080108 08:00;0;3
H2S;uur;�g/m�;20080108 08:00;20080108 09:00;0;1
H2S;uur;�g/m�;20080108 09:00;20080108 10:00;0;2
H2S;uur;�g/m�;20080108 10:00;20080108 11:00;0;3
H2S;uur;�g/m�;20080108 11:00;20080108 12:00;1;4
H2S;uur;�g/m�;20080108 12:00;20080108 13:00;;
H2S;uur;�g/m�;20080108 13:00;20080108 14:00;1;11
H2S;uur;�g/m�;20080108 14:00;20080108 15:00;0;9
H2S;uur;�g/m�;20080108 15:00;20080108 16:00;0;13
H2S;uur;�g/m�;20080108 16:00;20080108 17:00;0;9
H2S;uur;�g/m�;20080108 17:00;20080108 18:00;1;3
H2S;uur;�g/m�;20080108 18:00;20080108 19:00;0;1
H2S;uur;�g/m�;20080108 19:00;20080108 20:00;1;7
H2S;uur;�g/m�;20080108 20:00;20080108 21:00;0;23
H2S;uur;�g/m�;20080108 21:00;20080108 22:00;0;7
H2S;uur;�g/m�;20080108 22:00;20080108 23:00;0;3
H2S;uur;�g/m�;20080108 23:00;20080109 00:00;0;2
H2S;uur;�g/m�;20080109 00:00;20080109 01:00;0;1
H2S;uur;�g/m�;20080109 01:00;20080109 02:00;0;0
H2S;uur;�g/m�;20080109 02:00;20080109 03:00;0;1
H2S;uur;�g/m�;20080109 03:00;20080109 04:00;0;6
H2S;uur;�g/m�;20080109 04:00;20080109 05:00;0;10
H2S;uur;�g/m�;20080109 05:00;20080109 06:00;0;2
H2S;uur;�g/m�;20080109 06:00;20080109 07:00;0;5
H2S;uur;�g/m�;20080109 07:00;20080109 08:00;0;3
H2S;uur;�g/m�;20080109 08:00;20080109 09:00;0;3
H2S;uur;�g/m�;20080109 09:00;20080109 10:00;0;2
H2S;uur;�g/m�;20080109 10:00;20080109 11:00;0;1
H2S;uur;�g/m�;20080109 11:00;20080109 12:00;0;0
H2S;uur;�g/m�;20080109 12:00;20080109 13:00;0;0
H2S;uur;�g/m�;20080109 13:00;20080109 14:00;0;0
H2S;uur;�g/m�;20080109 14:00;20080109 15:00;0;0
H2S;uur;�g/m�;20080109 15:00;20080109 16:00;0;0
H2S;uur;�g/m�;20080109 16:00;20080109 17:00;0;0
H2S;uur;�g/m�;20080109 17:00;20080109 18:00;0;0
H2S;uur;�g/m�;20080109 18:00;20080109 19:00;0;0
H2S;uur;�g/m�;20080109 19:00;20080109 20:00;0;2
H2S;uur;�g/m�;20080109 20:00;20080109 21:00;0;14
H2S;uur;�g/m�;20080109 21:00;20080109 22:00;0;11
H2S;uur;�g/m�;20080109 22:00;20080109 23:00;0;7
H2S;uur;�g/m�;20080109 23:00;20080110 00:00;0;5
H2S;uur;�g/m�;20080110 00:00;20080110 01:00;0;5
H2S;uur;�g/m�;20080110 01:00;20080110 02:00;0;9
H2S;uur;�g/m�;20080110 02:00;20080110 03:00;0;13
H2S;uur;�g/m�;20080110 03:00;20080110 04:00;0;11
H2S;uur;�g/m�;20080110 04:00;20080110 05:00;0;14
H2S;uur;�g/m�;20080110 05:00;20080110 06:00;0;13
H2S;uur;�g/m�;20080110 06:00;20080110 07:00;0;12
H2S;uur;�g/m�;20080110 07:00;20080110 08:00;0;9
H2S;uur;�g/m�;20080110 08:00;20080110 09:00;0;11
H2S;uur;�g/m�;20080110 09:00;20080110 10:00;0;12
H2S;uur;�g/m�;20080110 10:00;20080110 11:00;0;11
H2S;uur;�g/m�;20080110 11:00;20080110 12:00;0;8
H2S;uur;�g/m�;20080110 12:00;20080110 13:00;1;12
H2S;uur;�g/m�;20080110 13:00;20080110 14:00;;
H2S;uur;�g/m�;20080110 14:00;20080110 15:00;0;9
H2S;uur;�g/m�;20080110 15:00;20080110 16:00;0;14
H2S;uur;�g/m�;20080110 16:00;20080110 17:00;0;22
H2S;uur;�g/m�;20080110 17:00;20080110 18:00;0;10
H2S;uur;�g/m�;20080110 18:00;20080110 19:00;0;16
H2S;uur;�g/m�;20080110 19:00;20080110 20:00;0;10
H2S;uur;�g/m�;20080110 20:00;20080110 21:00;0;11
H2S;uur;�g/m�;20080110 21:00;20080110 22:00;0;9
H2S;uur;�g/m�;20080110 22:00;20080110 23:00;0;11
H2S;uur;�g/m�;20080110 23:00;20080111 00:00;0;12
H2S;uur;�g/m�;20080111 00:00;20080111 01:00;0;18
H2S;uur;�g/m�;20080111 01:00;20080111 02:00;0;13
H2S;uur;�g/m�;20080111 02:00;20080111 03:00;0;3
H2S;uur;�g/m�;20080111 03:00;20080111 04:00;0;1
H2S;uur;�g/m�;20080111 04:00;20080111 05:00;0;3
H2S;uur;�g/m�;20080111 05:00;20080111 06:00;0;10
H2S;uur;�g/m�;20080111 06:00;20080111 07:00;0;13
H2S;uur;�g/m�;20080111 07:00;20080111 08:00;0;5
H2S;uur;�g/m�;20080111 08:00;20080111 09:00;0;21
H2S;uur;�g/m�;20080111 09:00;20080111 10:00;0;15
H2S;uur;�g/m�;20080111 10:00;20080111 11:00;0;2
H2S;uur;�g/m�;20080111 11:00;20080111 12:00;0;3
H2S;uur;�g/m�;20080111 12:00;20080111 13:00;0;2
H2S;uur;�g/m�;20080111 13:00;20080111 14:00;0;3
H2S;uur;�g/m�;20080111 14:00;20080111 15:00;0;1
H2S;uur;�g/m�;20080111 15:00;20080111 16:00;0;3
H2S;uur;�g/m�;20080111 16:00;20080111 17:00;0;3
H2S;uur;�g/m�;20080111 17:00;20080111 18:00;0;3
H2S;uur;�g/m�;20080111 18:00;20080111 19:00;0;3
H2S;uur;�g/m�;20080111 19:00;20080111 20:00;0;3
H2S;uur;�g/m�;20080111 20:00;20080111 21:00;0;3
H2S;uur;�g/m�;20080111 21:00;20080111 22:00;0;3
H2S;uur;�g/m�;20080111 22:00;20080111 23:00;0;3
H2S;uur;�g/m�;20080111 23:00;20080112 00:00;0;3
H2S;uur;�g/m�;20080112 00:00;20080112 01:00;0;2
H2S;uur;�g/m�;20080112 01:00;20080112 02:00;0;2
H2S;uur;�g/m�;20080112 02:00;20080112 03:00;0;3
H2S;uur;�g/m�;20080112 03:00;20080112 04:00;0;1
H2S;uur;�g/m�;20080112 04:00;20080112 05:00;0;1
H2S;uur;�g/m�;20080112 05:00;20080112 06:00;0;6
H2S;uur;�g/m�;20080112 06:00;20080112 07:00;0;4
H2S;uur;�g/m�;20080112 07:00;20080112 08:00;0;9
H2S;uur;�g/m�;20080112 08:00;20080112 09:00;0;0
H2S;uur;�g/m�;20080112 09:00;20080112 10:00;0;1
H2S;uur;�g/m�;20080112 10:00;20080112 11:00;0;0
H2S;uur;�g/m�;20080112 11:00;20080112 12:00;0;0
H2S;uur;�g/m�;20080112 12:00;20080112 13:00;0;0
H2S;uur;�g/m�;20080112 13:00;20080112 14:00;0;1
H2S;uur;�g/m�;20080112 14:00;20080112 15:00;;
H2S;uur;�g/m�;20080112 15:00;20080112 16:00;2;0
H2S;uur;�g/m�;20080112 16:00;20080112 17:00;0;0
H2S;uur;�g/m�;20080112 17:00;20080112 18:00;0;0
H2S;uur;�g/m�;20080112 18:00;20080112 19:00;0;0
H2S;uur;�g/m�;20080112 19:00;20080112 20:00;0;8
H2S;uur;�g/m�;20080112 20:00;20080112 21:00;0;11
H2S;uur;�g/m�;20080112 21:00;20080112 22:00;0;13
H2S;uur;�g/m�;20080112 22:00;20080112 23:00;0;14
H2S;uur;�g/m�;20080112 23:00;20080113 00:00;1;20
H2S;uur;�g/m�;20080113 00:00;20080113 01:00;0;15
H2S;uur;�g/m�;20080113 01:00;20080113 02:00;1;4
H2S;uur;�g/m�;20080113 02:00;20080113 03:00;1;2
H2S;uur;�g/m�;20080113 03:00;20080113 04:00;0;1
H2S;uur;�g/m�;20080113 04:00;20080113 05:00;1;1
H2S;uur;�g/m�;20080113 05:00;20080113 06:00;0;1
H2S;uur;�g/m�;20080113 06:00;20080113 07:00;1;1
H2S;uur;�g/m�;20080113 07:00;20080113 08:00;0;0
H2S;uur;�g/m�;20080113 08:00;20080113 09:00;0;0
H2S;uur;�g/m�;20080113 09:00;20080113 10:00;0;0
H2S;uur;�g/m�;20080113 10:00;20080113 11:00;0;0
H2S;uur;�g/m�;20080113 11:00;20080113 12:00;0;0
H2S;uur;�g/m�;20080113 12:00;20080113 13:00;0;0
H2S;uur;�g/m�;20080113 13:00;20080113 14:00;0;0
H2S;uur;�g/m�;20080113 14:00;20080113 15:00;0;0
H2S;uur;�g/m�;20080113 15:00;20080113 16:00;0;1
H2S;uur;�g/m�;20080113 16:00;20080113 17:00;0;1
H2S;uur;�g/m�;20080113 17:00;20080113 18:00;0;2
H2S;uur;�g/m�;20080113 18:00;20080113 19:00;0;1
H2S;uur;�g/m�;20080113 19:00;20080113 20:00;0;1
H2S;uur;�g/m�;20080113 20:00;20080113 21:00;0;1
H2S;uur;�g/m�;20080113 21:00;20080113 22:00;0;0
H2S;uur;�g/m�;20080113 22:00;20080113 23:00;0;0
H2S;uur;�g/m�;20080113 23:00;20080114 00:00;0;0
H2S;uur;�g/m�;20080114 00:00;20080114 01:00;0;0
H2S;uur;�g/m�;20080114 01:00;20080114 02:00;0;0
H2S;uur;�g/m�;20080114 02:00;20080114 03:00;0;1
H2S;uur;�g/m�;20080114 03:00;20080114 04:00;1;2
H2S;uur;�g/m�;20080114 04:00;20080114 05:00;0;2
H2S;uur;�g/m�;20080114 05:00;20080114 06:00;1;2
H2S;uur;�g/m�;20080114 06:00;20080114 07:00;0;1
H2S;uur;�g/m�;20080114 07:00;20080114 08:00;0;0
H2S;uur;�g/m�;20080114 08:00;20080114 09:00;0;1
H2S;uur;�g/m�;20080114 09:00;20080114 10:00;0;10
H2S;uur;�g/m�;20080114 10:00;20080114 11:00;0;6
H2S;uur;�g/m�;20080114 11:00;20080114 12:00;0;2
H2S;uur;�g/m�;20080114 12:00;20080114 13:00;0;1
H2S;uur;�g/m�;20080114 13:00;20080114 14:00;0;2
H2S;uur;�g/m�;20080114 14:00;20080114 15:00;0;9
H2S;uur;�g/m�;20080114 15:00;20080114 16:00;;
H2S;uur;�g/m�;20080114 16:00;20080114 17:00;1;11
H2S;uur;�g/m�;20080114 17:00;20080114 18:00;1;25
H2S;uur;�g/m�;20080114 18:00;20080114 19:00;1;23
H2S;uur;�g/m�;20080114 19:00;20080114 20:00;1;14
H2S;uur;�g/m�;20080114 20:00;20080114 21:00;1;19
H2S;uur;�g/m�;20080114 21:00;20080114 22:00;0;14
H2S;uur;�g/m�;20080114 22:00;20080114 23:00;1;11
H2S;uur;�g/m�;20080114 23:00;20080115 00:00;1;17
H2S;uur;�g/m�;20080115 00:00;20080115 01:00;1;8
H2S;uur;�g/m�;20080115 01:00;20080115 02:00;1;14
H2S;uur;�g/m�;20080115 02:00;20080115 03:00;1;18
H2S;uur;�g/m�;20080115 03:00;20080115 04:00;1;26
H2S;uur;�g/m�;20080115 04:00;20080115 05:00;1;34
H2S;uur;�g/m�;20080115 05:00;20080115 06:00;1;23
H2S;uur;�g/m�;20080115 06:00;20080115 07:00;1;15
H2S;uur;�g/m�;20080115 07:00;20080115 08:00;1;8
H2S;uur;�g/m�;20080115 08:00;20080115 09:00;1;5
H2S;uur;�g/m�;20080115 09:00;20080115 10:00;1;1
H2S;uur;�g/m�;20080115 10:00;20080115 11:00;1;0
H2S;uur;�g/m�;20080115 11:00;20080115 12:00;1;0
H2S;uur;�g/m�;20080115 12:00;20080115 13:00;0;
H2S;uur;�g/m�;20080115 13:00;20080115 14:00;1;
H2S;uur;�g/m�;20080115 14:00;20080115 15:00;1;0
H2S;uur;�g/m�;20080115 15:00;20080115 16:00;0;1
H2S;uur;�g/m�;20080115 16:00;20080115 17:00;1;14
H2S;uur;�g/m�;20080115 17:00;20080115 18:00;1;7
H2S;uur;�g/m�;20080115 18:00;20080115 19:00;1;11
H2S;uur;�g/m�;20080115 19:00;20080115 20:00;1;11
H2S;uur;�g/m�;20080115 20:00;20080115 21:00;1;7
H2S;uur;�g/m�;20080115 21:00;20080115 22:00;1;1
H2S;uur;�g/m�;20080115 22:00;20080115 23:00;1;7
H2S;uur;�g/m�;20080115 23:00;20080116 00:00;1;9
H2S;uur;�g/m�;20080116 00:00;20080116 01:00;1;10
H2S;uur;�g/m�;20080116 01:00;20080116 02:00;1;8
H2S;uur;�g/m�;20080116 02:00;20080116 03:00;1;3
H2S;uur;�g/m�;20080116 03:00;20080116 04:00;1;1
H2S;uur;�g/m�;20080116 04:00;20080116 05:00;1;1
H2S;uur;�g/m�;20080116 05:00;20080116 06:00;1;7
H2S;uur;�g/m�;20080116 06:00;20080116 07:00;1;5
H2S;uur;�g/m�;20080116 07:00;20080116 08:00;0;0
H2S;uur;�g/m�;20080116 08:00;20080116 09:00;1;0
H2S;uur;�g/m�;20080116 09:00;20080116 10:00;0;4
H2S;uur;�g/m�;20080116 10:00;20080116 11:00;1;4
H2S;uur;�g/m�;20080116 11:00;20080116 12:00;1;2
H2S;uur;�g/m�;20080116 12:00;20080116 13:00;1;0
H2S;uur;�g/m�;20080116 13:00;20080116 14:00;1;0
H2S;uur;�g/m�;20080116 14:00;20080116 15:00;1;1
H2S;uur;�g/m�;20080116 15:00;20080116 16:00;1;2
H2S;uur;�g/m�;20080116 16:00;20080116 17:00;;
H2S;uur;�g/m�;20080116 17:00;20080116 18:00;0;4
H2S;uur;�g/m�;20080116 18:00;20080116 19:00;0;8
H2S;uur;�g/m�;20080116 19:00;20080116 20:00;1;11
H2S;uur;�g/m�;20080116 20:00;20080116 21:00;0;13
H2S;uur;�g/m�;20080116 21:00;20080116 22:00;0;17
H2S;uur;�g/m�;20080116 22:00;20080116 23:00;1;10
H2S;uur;�g/m�;20080116 23:00;20080117 00:00;1;14
H2S;uur;�g/m�;20080117 00:00;20080117 01:00;1;15
H2S;uur;�g/m�;20080117 01:00;20080117 02:00;1;18
H2S;uur;�g/m�;20080117 02:00;20080117 03:00;1;17
H2S;uur;�g/m�;20080117 03:00;20080117 04:00;1;16
H2S;uur;�g/m�;20080117 04:00;20080117 05:00;1;19
H2S;uur;�g/m�;20080117 05:00;20080117 06:00;1;19
H2S;uur;�g/m�;20080117 06:00;20080117 07:00;0;18
H2S;uur;�g/m�;20080117 07:00;20080117 08:00;1;9
H2S;uur;�g/m�;20080117 08:00;20080117 09:00;1;3
H2S;uur;�g/m�;20080117 09:00;20080117 10:00;1;2
H2S;uur;�g/m�;20080117 10:00;20080117 11:00;0;2
H2S;uur;�g/m�;20080117 11:00;20080117 12:00;1;2
H2S;uur;�g/m�;20080117 12:00;20080117 13:00;1;1
H2S;uur;�g/m�;20080117 13:00;20080117 14:00;1;1
H2S;uur;�g/m�;20080117 14:00;20080117 15:00;1;1
H2S;uur;�g/m�;20080117 15:00;20080117 16:00;1;1
H2S;uur;�g/m�;20080117 16:00;20080117 17:00;1;2
H2S;uur;�g/m�;20080117 17:00;20080117 18:00;0;1
H2S;uur;�g/m�;20080117 18:00;20080117 19:00;0;5
H2S;uur;�g/m�;20080117 19:00;20080117 20:00;0;10
H2S;uur;�g/m�;20080117 20:00;20080117 21:00;0;3
H2S;uur;�g/m�;20080117 21:00;20080117 22:00;0;1
H2S;uur;�g/m�;20080117 22:00;20080117 23:00;1;0
H2S;uur;�g/m�;20080117 23:00;20080118 00:00;0;0
H2S;uur;�g/m�;20080118 00:00;20080118 01:00;0;0
H2S;uur;�g/m�;20080118 01:00;20080118 02:00;0;1
H2S;uur;�g/m�;20080118 02:00;20080118 03:00;0;1
H2S;uur;�g/m�;20080118 03:00;20080118 04:00;0;0
H2S;uur;�g/m�;20080118 04:00;20080118 05:00;0;1
H2S;uur;�g/m�;20080118 05:00;20080118 06:00;0;0
H2S;uur;�g/m�;20080118 06:00;20080118 07:00;1;0
H2S;uur;�g/m�;20080118 07:00;20080118 08:00;0;0
H2S;uur;�g/m�;20080118 08:00;20080118 09:00;0;0
H2S;uur;�g/m�;20080118 09:00;20080118 10:00;0;0
H2S;uur;�g/m�;20080118 10:00;20080118 11:00;0;0
H2S;uur;�g/m�;20080118 11:00;20080118 12:00;0;1
H2S;uur;�g/m�;20080118 12:00;20080118 13:00;0;2
H2S;uur;�g/m�;20080118 13:00;20080118 14:00;0;1
H2S;uur;�g/m�;20080118 14:00;20080118 15:00;0;8
H2S;uur;�g/m�;20080118 15:00;20080118 16:00;0;18
H2S;uur;�g/m�;20080118 16:00;20080118 17:00;0;8
H2S;uur;�g/m�;20080118 17:00;20080118 18:00;;
H2S;uur;�g/m�;20080118 18:00;20080118 19:00;0;3
H2S;uur;�g/m�;20080118 19:00;20080118 20:00;0;2
H2S;uur;�g/m�;20080118 20:00;20080118 21:00;0;1
H2S;uur;�g/m�;20080118 21:00;20080118 22:00;0;1
H2S;uur;�g/m�;20080118 22:00;20080118 23:00;0;1
H2S;uur;�g/m�;20080118 23:00;20080119 00:00;0;1
H2S;uur;�g/m�;20080119 00:00;20080119 01:00;0;1
H2S;uur;�g/m�;20080119 01:00;20080119 02:00;0;1
H2S;uur;�g/m�;20080119 02:00;20080119 03:00;0;1
H2S;uur;�g/m�;20080119 03:00;20080119 04:00;0;1
H2S;uur;�g/m�;20080119 04:00;20080119 05:00;0;0
H2S;uur;�g/m�;20080119 05:00;20080119 06:00;0;0
H2S;uur;�g/m�;20080119 06:00;20080119 07:00;0;1
H2S;uur;�g/m�;20080119 07:00;20080119 08:00;0;0
H2S;uur;�g/m�;20080119 08:00;20080119 09:00;0;0
H2S;uur;�g/m�;20080119 09:00;20080119 10:00;0;0
H2S;uur;�g/m�;20080119 10:00;20080119 11:00;0;0
H2S;uur;�g/m�;20080119 11:00;20080119 12:00;0;1
H2S;uur;�g/m�;20080119 12:00;20080119 13:00;0;0
H2S;uur;�g/m�;20080119 13:00;20080119 14:00;0;1
H2S;uur;�g/m�;20080119 14:00;20080119 15:00;0;0
H2S;uur;�g/m�;20080119 15:00;20080119 16:00;0;1
H2S;uur;�g/m�;20080119 16:00;20080119 17:00;0;1
H2S;uur;�g/m�;20080119 17:00;20080119 18:00;0;1
H2S;uur;�g/m�;20080119 18:00;20080119 19:00;0;1
H2S;uur;�g/m�;20080119 19:00;20080119 20:00;0;2
H2S;uur;�g/m�;20080119 20:00;20080119 21:00;0;2
H2S;uur;�g/m�;20080119 21:00;20080119 22:00;0;3
H2S;uur;�g/m�;20080119 22:00;20080119 23:00;0;2
H2S;uur;�g/m�;20080119 23:00;20080120 00:00;0;10
H2S;uur;�g/m�;20080120 00:00;20080120 01:00;0;12
H2S;uur;�g/m�;20080120 01:00;20080120 02:00;0;3
H2S;uur;�g/m�;20080120 02:00;20080120 03:00;0;1
H2S;uur;�g/m�;20080120 03:00;20080120 04:00;0;2
H2S;uur;�g/m�;20080120 04:00;20080120 05:00;0;2
H2S;uur;�g/m�;20080120 05:00;20080120 06:00;0;2
H2S;uur;�g/m�;20080120 06:00;20080120 07:00;0;1
H2S;uur;�g/m�;20080120 07:00;20080120 08:00;0;1
H2S;uur;�g/m�;20080120 08:00;20080120 09:00;0;1
H2S;uur;�g/m�;20080120 09:00;20080120 10:00;0;1
H2S;uur;�g/m�;20080120 10:00;20080120 11:00;0;2
H2S;uur;�g/m�;20080120 11:00;20080120 12:00;0;1
H2S;uur;�g/m�;20080120 12:00;20080120 13:00;0;0
H2S;uur;�g/m�;20080120 13:00;20080120 14:00;0;1
H2S;uur;�g/m�;20080120 14:00;20080120 15:00;0;1
H2S;uur;�g/m�;20080120 15:00;20080120 16:00;0;1